This is the latest recevied weather packets stored in our database for station/object EMGATE. If no packets are shown the sender has not sent any weather packets the latest 10 day(s).
| Time | Temp. | Humidity | Pressure | Rain* | Wind** | Luminosity | Snow |
|---|---|---|---|---|---|---|---|
| 1776999247 | 0° C | 57% | 1015.1 hPa | 0 mm | - | - | - |
| 1776998347 | 0° C | 57% | 1015.2 hPa | 0 mm | - | - | - |
| 1776997447 | 0.56° C | 56% | 1015.2 hPa | 0 mm | - | - | - |
| 1776996547 | 1.11° C | 55% | 1015.3 hPa | 0 mm | - | - | - |
| 1776995647 | 1.11° C | 54% | 1015.4 hPa | 0 mm | - | - | - |
| 1776994747 | 1.11° C | 53% | 1015.5 hPa | 0 mm | - | - | - |
| 1776993847 | 1.67° C | 53% | 1015.4 hPa | 0 mm | - | - | - |
| 1776992947 | 1.67° C | 52% | 1015.4 hPa | 0 mm | - | - | - |
| 1776992047 | 2.22° C | 52% | 1015.4 hPa | 0 mm | - | - | - |
| 1776991147 | 2.22° C | 50% | 1015.4 hPa | 0 mm | - | - | - |
| 1776990247 | 2.22° C | 50% | 1015.3 hPa | 0 mm | - | - | - |
| 1776989347 | 2.78° C | 49% | 1015.3 hPa | 0 mm | - | - | - |
| 1776988447 | 2.78° C | 48% | 1015.3 hPa | 0 mm | - | - | - |
| 1776987547 | 3.33° C | 48% | 1015.3 hPa | 0 mm | - | - | - |
| 1776986647 | 3.33° C | 47% | 1015.2 hPa | 0 mm | - | - | - |
| 1776985748 | 3.89° C | 47% | 1015 hPa | 0 mm | - | - | - |
| 1776984848 | 3.89° C | 47% | 1015 hPa | 0 mm | - | - | - |
| 1776983948 | 4.44° C | 46% | 1014.9 hPa | 0 mm | - | - | - |
| 1776983047 | 5° C | 47% | 1014.9 hPa | 0 mm | - | - | - |
| 1776982147 | 5° C | 46% | 1014.7 hPa | 0 mm | - | - | - |
| 1776981247 | 5.56° C | 45% | 1014.6 hPa | 0 mm | - | - | - |
| 1776980347 | 6.11° C | 44% | 1014.4 hPa | 0 mm | - | - | - |
| 1776979448 | 6.67° C | 44% | 1014.4 hPa | 0 mm | - | - | - |
| 1776978547 | 6.67° C | 43% | 1014.4 hPa | 0 mm | - | - | - |
| 1776977647 | 7.22° C | 42% | 1014.3 hPa | 0 mm | - | - | - |
* Rain latest hour (hover to see other rain measurements)
** Current wind speed in m/s (hover to see current wind gust speed)